Regional Weather Roundup
Issued by NWS Goodland, KS

Home | Current Version | Previous Version | Graphics & Text | Print | Product List | Glossary On
Versions: 1 2 3 4 5 6 7 8 9 10 11 12 13 14 15 16 17 18 19 20 21 22 23 24 25 26 27 28 29 30 31 32 33 34 35 36 37 38 39 40 41 42 43 44 45 46 47 48 49 50
000
ASUS43 KGLD 170708
RWRGLD

GOODLAND FORECAST AREA HOURLY WEATHER ROUNDUP
NATIONAL WEATHER SERVICE GOODLAND KS
1200 AM MST WED JAN 17 2018

...OFFICIAL OBSERVATIONS...

CITY           SKY/WX    TMP DP  RH WIND       PRES   REMARKS
GOODLAND KS    CLEAR     12  -1  56 S15       30.34F WCI  -4
HILL CITY KS   CLOUDY     7  -1  70 SW9       30.52F
IMPERIAL NEB   CLEAR      5  -1  76 S6        30.34F
MCCOOK NEB     CLEAR      5  -2  72 SE5       30.43F
AKRON CO       CLEAR     14   4  64 W9        30.23F
BURLINGTON CO  CLEAR     12   1  61 SW13      30.31F WCI  -3
LIMON CO       CLEAR      4   1  88 SE5       30.25F
$$

...UNOFFICIAL OBSERVATIONS...

CITY           SKY/WX    TMP DP  RH WIND       PRES   REMARKS
COLBY KS       CLEAR      9   0  66 S8        30.41F
LENORA KS        N/A      5  32 100 S8          N/A
NORTON KS      CLEAR      5  -2  72 S7        30.47
SHARON SPRINGS   N/A      9  -2  60 S9          N/A
TRIBUNE KS     CLEAR      9  -4  56 S9        30.40F
TRENTON NEB      N/A      4  32 100 SW7         N/A
KIT CARSON CO    N/A      5  -5  64 CALM        N/A
YUMA CO        FAIR      10   3  72 SW5       30.27F
$$




USA.gov is the U.S. government's official web portal to all federal, state and local government web resources and services.